www.pogodaiklimat.ru

Погода и климат >> Архив погоды >> Россия >> Волгоградская область >> Волгоград


АРХИВ ПОГОДЫ в Волгограде

Время (UTC), дата Ветер
(напр.,м/с)
 
Видим.   Явления Облачность Т
(С)
Тd
(С)
f
(%)
Тe
(С)
Тes
(С)
Комфортность P
(гПа)
Po
(гПа)
Тmin
(С)
Tmax
(С)
R
(мм)
R24
(мм)
S
(см)
12 16.08 В 7-11
{13}
10 км 8/8 1000 м
[Cu hum]
+31.1 +5.6 20 +29 +30 жарко 1017.8 1000.4
15 16.08 В 7
{11}
10 км 5/0
[Ac trans]
+30.0 +5.7 22 +29 +29 жарко 1017.4 1000.0 +32.2
18 16.08 СВ 5
{11}
10 км 5/0
[Ac trans]
+24.6 +6.6 32 +25 +25 комфорт 1018.3 1000.5
21 16.08 СВ 6 10 км 6/0
[Ac trans]
+22.2 +8.2 41 +23 +23 комфорт 1018.4 1000.5
00 17.08 В 6 10 км ясно +18.5 +9.8 57 +18 +18 по сезону 1018.9 1000.8
03 17.08 В 8 10 км ясно +20.0 +11.4 58 +21 +21 комфорт 1019.5 1001.5 +17.6
06 17.08 В 5 10 км ясно +26.8 +8.8 32 +27 +31 жарко 1019.3 1001.7
09 17.08 В 7-11
{10}
10 км ясно +31.9 +4.6 18 +30 +34 жарко 1018.4 1001.0
12 17.08 ЮВ 8-11
{13}
10 км 4/4 1500 м
[Cu hum]
+34.2 +2.0 13 +31 +32 жарко 1017.0 999.8
15 17.08 ЮВ 8-10
{12}
10 км 5/0
[Ac trans]
+31.8 +2.6 16 +29 +29 жарко 1017.1 999.8 +34.5
18 17.08 В 4
{12}
10 км 4/0
[Ac trans]
+25.8 +4.5 25 +25 +25 комфорт 1018.7 1001.0
21 17.08 ЮВ 3 10 км ясно +22.5 +5.7 34 +23 +23 комфорт 1019.3 1001.4
00 18.08 СВ 5 10 км 4/0
[Ac trans]
+21.1 +8.3 44 +22 +22 комфорт 1019.7 1001.7
03 18.08 СВ 6 10 км 4/0
[Ac trans]
+20.3 +9.7 51 +21 +22 комфорт 1020.0 1002.0 +18.8
06 18.08 В 8
{10}
10 км 5/0
[Ac trans]
+26.5 +10.6 37 +27 +28 жарко 1020.1 1002.4
09 18.08 В 9-12
{11}
10 км 6/0
[Ac trans]
+31.6 +8.0 23 +30 +31 жарко 1019.7 1002.3
12 18.08 В 7-10
{12}
10 км 8/4 1500 м
[Cb calv Ac trans]
+33.3 +2.8 15 +30 +31 жарко 1018.5 1001.2
15 18.08 СВ 9-13
{15}
10 км 8/3 1500 м
[Cb calv Ac trans]
+28.9 +8.1 27 +28 +28 жарко 1019.1 1001.6 +34.1
18 18.08 В 7
{15}
10 км 5/0
[Ac trans]
+25.5 +9.6 37 +26 +26 жарко 1020.5 1002.8
21 18.08 СВ 6 10 км 5/0
[Ac trans]
+23.0 +9.4 42 +25 +25 комфорт 1020.3 1002.4
00 19.08 В 8
{10}
10 км 4/0
[Ac trans]
+21.7 +11.6 53 +24 +24 комфорт 1020.4 1002.4
03 19.08 СВ 7 10 км 8/0
[Ac trans]
+21.7 +9.7 46 +23 +23 комфорт 1021.0 1003.0 +20.1
06 19.08 В 8
{12}
10 км 5/0
[Ac trans]
+26.3 +9.2 34 +27 +28 жарко 1021.2 1003.5
09 19.08 В 7-10
{11}
10 км 4/0
[Ac trans]
+31.7 +8.1 23 +31 +34 жарко 1020.2 1002.8
12 19.08 В 6
{11}
10 км 4/4 1000 м
[Cu med, cong]
+33.3 +7.3 20 +32 +34 жарко 1019.2 1001.9
15 19.08 В 7-12
{17}
10 км дым ?/? +30.0 +6.2 22 +29 +29 жарко 1019.4 1001.9 +34.1
18 19.08 В 8-11
{17}
10 км 8/0
[Ac trans]
+26.3 +8.2 32 +26 +26 жарко 1020.4 1002.7
21 19.08 В 8
{12}
10 км 5/0
[Ac trans]
+24.4 +10.5 42 +26 +26 жарко 1020.3 1002.5
00 20.08 В 6
{12}
10 км 4/0
[Ac trans]
+21.2 +12.1 56 +23 +23 комфорт 1020.3 1002.3
03 20.08 В 5 10 км 8/0
[Ac trans]
+20.9 +11.3 54 +23 +23 комфорт 1020.6 1002.6 +20.4
06 20.08 В 5 10 км 8/0
[Ac trans]
+27.4 +9.2 32 +28 +30 жарко 1020.8 1003.2
09 20.08 В 6
{12}
10 км 5/0
[Ac trans]
+31.9 +6.2 20 +30 +34 жарко 1020.2 1002.8
12 20.08 В 7
{12}
10 км 8/3 1500 м
[Cb calv Ac trans]
+32.3 +5.3 18 +30 +31 жарко 1019.0 1001.7
15 20.08 ЮВ 8-10
{13}
10 км 8/0
[Ac trans]
+30.0 +6.4 23 +29 +29 жарко 1019.3 1001.8 +34.1
18 20.08 ЮВ 5
{13}
10 км 8/0
[Ac trans]
+26.6 +6.7 28 +26 +26 жарко 1020.4 1002.7
21 20.08 ЮВ 5 10 км 8/0
[Ac trans]
+27.6 +5.2 24 +27 +27 жарко 1019.9 1002.3
00 21.08 В 4 10 км 8/0
[Ac trans]
+24.4 +6.6 32 +24 +24 комфорт 1020.1 1002.3
03 21.08 В 4 10 км 8/3 1500 м
[Cb calv Ac trans]
+23.1 +9.9 43 +25 +25 комфорт 1020.0 1002.1 +22.6
06 21.08 В 6 10 км 5/0
[Ac trans]
+27.7 +9.2 31 +28 +30 жарко 1018.9 1001.3
09 21.08 В 7-11
{12}
10 км 3/3 1000 м
[Cu hum]
+31.8 +7.2 22 +30 +33 жарко 1017.7 1000.4
12 21.08 ЮВ 9-15
{15}
10 км 4/4 1000 м
[Cu hum]
+33.2 +4.2 16 +31 +31 жарко 1015.6 998.4
15 21.08 ЮВ 7
{15}
10 км 3/0
[Ac trans]
+31.5 +1.8 15 +29 +29 жарко 1014.9 997.6 +34.1
18 21.08 В 3
{15}
10 км ясно +23.2 +4.1 29 +23 +23 комфорт 1015.6 997.8
21 21.08 В 4 10 км ясно +20.2 +6.5 41 +21 +21 комфорт 1015.9 997.9
00 22.08 В 4 10 км ясно +18.4 +5.3 42 +18 +18 тепло 1015.4 997.3
03 22.08 В 6 10 км ясно +18.7 +7.9 49 +19 +19 по сезону 1015.2 997.1 +17.4
06 22.08 В 8-11
{11}
10 км ясно +27.1 +3.0 21 +26 +27 жарко 1014.5 996.9
09 22.08 В 8-12
{13}
10 км ясно +30.4 +4.1 19 +28 +31 жарко 1013.2 995.8
12 22.08 В 9-11
{14}
10 км 4/0
[Ci fib]
+33.2 +3.0 15 +30 +31 жарко 1011.2 994.0
15 22.08 В 8-11
{13}
10 км 5/0
[Ac trans]
+31.7 +4.0 17 +29 +29 жарко 1010.3 993.1 +33.7
18 22.08 ЮВ 7
{13}
10 км 5/0
[Ci fib]
+28.2 +6.0 24 +27 +27 жарко 1011.4 994.0
21 22.08 ЮВ 6
{10}
10 км 5/0
[Ac trans]
+26.2 +3.3 23 +25 +25 комфорт 1011.8 994.2
00 23.08 ЮВ 6
{10}
10 км 5/0
[Ac trans]
+24.6 +4.2 27 +24 +24 комфорт 1011.2 993.5
03 23.08 В 7 10 км 8/0
[Ac trans]
+23.1 +5.2 31 +23 +23 комфорт 1011.0 993.3 +21.5
06 23.08 ЮВ 7
{12}
10 км 8/0
[Ac trans]
+24.1 +10.0 41 +25 +26 комфорт 1011.3 993.6
09 23.08 ЮВ 10-13
{14}
10 км 9/5 1000 м
[Cu hum Ac trans]
+32.4 +8.6 23 +31 +31 жарко 1009.3 992.1

 

Местоположение метеостанции Волгоград (Волгоградская область, Россия): широта 48.78 долгота 44.37 высота над уровнем моря 134 м.

В архиве по умолчанию представлена погода в Волгограде за последнюю неделю. Архивные данные за месяц целиком и за предыдущие месяцы, начиная с января 2011 года, Вы можете получить, выбрав интересующий диапазон дат из раскрывающегося списка и нажав кнопку "Ввод!".

Внимание! Время в таблицах - всемирное. Для получения местного времени необходимо прибавить поправку, которая в Волгограде равна 3 ч.

Смотрите также архив погоды в соседних городах и на ближайших метеорологических станциях:

Погода в Волгограде город (Волгоградская область, Россия) (14 км)
Погода в Иловле (Волгоградская область, Россия) (64 км)
Погода в Калаче-на-Дону (Волгоградская область, Россия) (66 км)
Погода в Малых Дербетах (Калмыкия, Россия) (98 км)
Погода в Нижнем Чире (Волгоградская область, Россия) (105 км)
Погода в Ольховке (Волгоградская область, Россия) (122 км)
Погода в Фролове (Волгоградская область, Россия) (124 км)
Погода в Серафимовиче (Волгоградская область, Россия) (148 км)
Погода в Черный Яр (Астраханская область, Россия) (151 км)
Погода в Котельниково (Волгоградская область, Россия) (157 км)

Пояснения к столбцам:

Ветер - указаны скорость ветра в м/с - средняя за 10 мин, порывы в срок и между сроками (в фигурных скобках) и направление, откуда дует ветер: С - северный, СВ - северо-восточный, В - восточный, ЮВ - юго-восточный, Ю - южный, ЮЗ - юго-западный, З - западный, СЗ - северо-западный.
Видимость - горизонтальная дальность видимости в метрах или километрах. При видимости от 1 до 10 км при отсутствии осадков обычно наблюдается дымка, при ухудшении видимости до 1 км и менее - туман. В сухую погоду видимость может ухудшаться дымом, пылью или мглою.
Явления - указаны атмосферные явления, наблюдавшиеся в срок или в последний час перед сроком; фигурными скобками обозначены явления, наблюдавшиеся между сроками (за 1-3 часа до срока); квадратными скобками обозначены град или гололедные отложения с указанием их диаметра в мм.
Облачность - указаны через наклонную черту общая и нижняя облачность в баллах и высота нижней границы облаков в метрах; квадратными скобками обозначены формы облаков: Ci - перистые, Cs - перисто-слоистые, Cc - перисто-кучевые, Ac - высококучевые, As - высокослоистые, Sc - слоисто-кучевые, Ns - слоисто-дождевые, Cu - кучевые, Cb - кучево-дождевые. Подробнее классификацию облаков см. в Атласе облаков (PDF).
T - Температура воздуха - температура, измеренная на высоте 2 м над землей.
Td - Температура точки росы - температура, при понижении до которой содержащийся в воздухе водяной пар достигнет насыщения.
f - Относительная влажность воздуха - влажноcть воздуха, измеренная на высоте 2 м над землей.
Te - Эффективная температура - температура, которую ощущает одетый по сезону человек в тени. Характеристика душности погоды. При расчете учитывается влияние влажности воздуха и скорости ветра на теплоощущения человека.
Tes - Эффективная температура на солнце - температура, которую ощущает человек, с поправкой на солнечный нагрев. Характеристика знойности погоды. Зависит от высоты солнца над горизонтом, облачности и скорости ветра. Ночью, в пасмурную погоду, а также при ветре 12 м/с и более поправка равна нулю.
P - Атмосферное давление - приведенное к уровню моря атмосферное давление.
Po - Атмосферное давление - измеренное на уровне метеостанции атмосферное давление.
Tmin - Минимальная температура - минимум температуры воздуха на высоте 2 м над землей.
Tmax - Максимальная температура - максимум температуры воздуха на высоте 2 м над землей.
R - Количество осадков - Количество выпавших осадков за период времени, мм. При наведении курсора мыши на число - период времени, за который выпало указанное количество осадков.
R24 - Количество осадков - Количество выпавших осадков за 24 часа, мм.
S - Снежный покров - Высота снежного покрова, см. При наведении курсора мыши на число - состояние снежного покрова и степень покрытия местности в баллах.